Portada
METAR-TAF:

METAR-TAF

Aeroports :

Ambato, Equador

latitud: 01-12-43S, longitud: 078-34-28W, altitud: 2591 m

Observació

L'informe es va fer fa 16 hores i 32 minuts, a les 21:00 UTC
Vent 4 kt del Est
Temperatura 17°C
Humitat 63%
Pressió 1026 hPa
Visibilitat 10 km o més
Cel ennuvolat a una alçada de 1600 ft

METAR: SEAM 192100Z 09004KT 9999 BKN016 17/10 Q1026

Hora: 08:32 (13:32 UTC)


TAF: manca

Observacions i pronòstics meteorològics de més de 4000 aeroports (METAR i TAF).

Les estacions disponibles són els punts grocs i vermells al mapa.

Posi el ratolí al punt desitjat per veure el nom de l'estació.

Feu clic per veure les observacions i els pronòstics meteorològics.

Per canviar el mapa: feu clic els botons verds amb una creu de color negre per apropar; al botó verd amb un guió per allunyar la imatge; o en les fletxes verdes per a mapes adjacents.


METAR-TAF: